Temperature
21 21 21 21 18 16 18 18 18 18 18 18 18 18 17 17 17 17 17 16 17 17 17 17 17 17 17 17 17 17 17 17 17 17 17 17 17 17 17 17 17 17 17 17 17 17 17 17 17
21 21 21 20 17 17 18 18 18 18 19 18 18 18 17 16 16 17 16 16 17 17 17 17 17 17 17 17 17 17 17 17 17 17 17 17 17 17 17 17 17 17 17 17 17 17 17 17 17
21 21 21 16 17 17 18 18 18 19 19 19 18 17 17 16 16 17 16 17 17 17 17 17 17 17 17 17 17 17 17 17 17 17 17 17 17 17 17 17 17 17 17 17 17 17 17 17 17
22 21 20 17 18 17 18 18 18 18 19 18 18 17 17 17 17 17 16 17 17 17 17 17 17 17 17 17 17 17 17 17 17 17 17 17 17 17 17 17 17 17 17 17 17 17 17 17 17
22 21 17 17 18 18 17 18 18 18 18 18 17 16 16 16 17 17 17 17 17 17 17 17 17 17 17 17 17 17 17 17 17 17 17 17 17 17 17 17 17 16 16 16 16 16 16 16 16
22 18 16 17 18 18 18 18 18 18 17 17 17 16 16 16 17 17 16 17 17 17 17 17 17 17 17 17 17 17 17 17 17 17 17 17 17 17 17 17 17 16 16 16 16 16 16 16 16
20 16 17 17 17 18 18 19 18 17 17 17 17 16 16 16 17 16 16 16 17 17 17 17 17 17 17 17 17 17 17 17 17 17 17 17 17 17 17 17 17 16 16 16 16 16 16 16 16
21 16 17 17 17 18 18 18 18 18 17 18 18 16 16 17 17 16 16 17 17 16 16 16 16 16 16 17 17 17 17 17 17 17 17 17 16 16 17 16 16 16 16 16 16 16 16 16 16
21 16 17 17 17 18 18 18 18 18 18 17 17 17 17 17 17 16 17 16 16 16 16 16 16 16 16 16 16 17 17 16 16 16 16 16 16 16 16 16 16 16 16 16 16 16 16 16 16
20 16 18 18 18 17 18 18 18 18 17 16 17 17 17 17 17 17 17 17 17 17 16 16 16 16 16 16 16 16 16 16 16 16 16 16 16 16 16 16 16 16 16 16 16 16 16 16 15
18 17 18 18 19 18 18 17 18 17 16 16 17 17 17 17 17 17 17 16 16 16 16 16 16 16 16 16 16 16 16 16 16 16 16 16 16 16 16 16 16 16 16 16 15 15 15 15 15
18 18 18 18 19 19 18 18 17 17 17 18 18 18 17 17 17 17 17 16 16 16 16 16 16 16 16 16 16 16 16 16 16 16 16 16 16 16 16 16 15 15 15 15 15 15 15 15 15
18 18 18 19 19 18 18 17 17 17 18 18 18 18 17 17 17 17 16 16 16 16 16 16 16 16 16 16 16 16 16 16 16 16 16 15 16 15 15 15 15 15 15 15 15 15 15 15 15
18 18 18 18 18 18 17 17 17 17 17 18 18 17 17 17 17 17 16 16 16 16 16 16 16 16 16 16 16 16 15 15 15 15 15 15 15 15 15 15 15 15 15 15 15 15 15 14 14
18 17 17 17 18 18 18 16 16 17 17 17 17 17 17 17 17 17 17 17 16 16 16 16 16 16 16 16 15 15 15 15 15 15 15 15 15 15 15 15 15 15 14 14 14 14 14 14 14
17 17 16 17 17 17 17 16 16 17 17 16 16 16 17 17 17 17 17 17 16 16 16 16 16 16 16 16 15 15 15 15 15 15 15 15 15 15 14 14 14 14 14 14 14 14 14 14 14
16 16 16 17 17 16 16 16 16 16 16 16 16 16 16 16 16 16 16 16 16 16 16 16 16 16 16 15 15 15 15 15 15 15 15 14 14 14 14 14 14 14 14 14 14 14 14 14 14
16 16 16 16 16 16 15 15 15 16 15 15 16 16 16 16 16 16 16 16 16 16 16 16 16 16 16 15 15 15 15 15 15 14 14 14 14 14 14 14 14 14 14 13 13 13 13 13 13
16 16 16 16 16 16 15 15 15 15 15 15 15 15 16 16 17 16 16 16 16 16 16 16 16 16 15 15 15 15 15 15 14 14 14 14 14 14 14 14 14 13 13 13 13 13 13 13 13
16 16 16 16 16 16 15 15 15 14 14 15 15 15 16 16 16 16 16 16 16 16 16 16 15 15 15 15 15 15 15 14 14 14 14 14 14 13 13 13 13 13 13 13 13 13 13 13 13
16 16 16 16 16 16 15 15 15 14 15 15 15 16 16 16 16 17 16 16 16 16 16 16 15 15 15 15 15 15 14 14 14 14 14 14 13 13 13 13 13 13 13 13 13 12 12 12 12
16 16 16 16 15 14 15 14 14 14 14 14 15 15 16 16 16 16 16 16 16 16 16 15 15 15 15 15 14 14 14 14 14 14 13 13 13 13 13 13 13 13 13 12 12 12 12 12 12
16 16 16 15 15 14 14 14 13 13 14 14 14 15 16 16 17 17 17 17 16 16 16 15 15 15 15 14 14 14 14 14 14 13 13 13 13 13 13 13 13 12 12 12 12 12 12 12 12
16 15 14 13 13 14 14 13 13 13 14 14 14 15 16 16 17 17 17 17 16 16 15 15 15 15 14 14 14 14 14 14 14 13 13 13 13 13 12 12 12 12 12 12 12 12 12 12 11
15 14 13 14 13 13 13 13 13 14 14 14 15 16 16 16 16 16 16 16 16 16 15 15 15 15 14 14 14 14 14 13 13 13 13 13 13 12 12 12 12 12 12 12 11 11 11 11 11
15 14 13 14 13 13 13 13 14 14 14 15 15 16 16 16 16 16 16 16 16 16 15 15 15 14 14 14 14 13 13 13 13 13 13 12 12 12 12 12 12 11 11 11 11 11 11 11 11
14 13 13 12 13 13 12 13 13 14 14 14 14 15 15 16 16 16 16 16 16 16 15 15 15 14 14 14 14 13 13 13 13 13 12 12 12 12 12 12 11 11 11 11 11 11 11 11 11
14 12 11 12 13 13 13 13 13 14 14 13 13 14 15 15 16 16 16 16 16 15 15 15 15 14 14 14 13 13 13 13 13 12 12 12 12 12 12 11 11 11 11 11 11 11 11 10 10
14 13 12 11 11 12 12 13 13 13 14 13 13 14 15 15 15 16 16 16 15 15 15 15 14 14 14 13 13 13 13 13 12 12 12 12 12 12 11 11 11 11 11 10 10 10 10 10 10
14 13 11 12 12 10 11 12 14 13 13 13 13 14 15 15 15 15 15 15 15 15 15 14 14 14 14 13 13 13 12 12 12 12 12 12 12 11 11 11 11 11 10 10 10 10 10 10 10
Wind_Speed
3 3 3 4 6 6 4 2 1 2 3 3 4 6 7 5 2 3 1 1 1 2 3 3 5 6 8 8 9 9 10 10 10 10 10 10 10 10 10 10 11 11 11 11 11 11 11 11 11
1 2 4 5 6 5 2 2 2 2 4 4 5 5 6 4 3 3 0 1 2 2 4 4 5 7 8 8 8 9 10 10 10 10 10 10 10 10 10 10 10 10 10 10 10 10 11 11 11
2 4 5 5 5 4 2 0 1 3 4 3 4 5 4 3 2 2 1 2 3 4 4 4 7 8 8 8 8 9 9 9 10 10 10 10 10 10 10 10 10 10 10 10 10 10 10 11 11
4 5 6 6 5 1 2 1 1 3 3 5 4 4 3 2 2 3 3 4 4 4 5 5 7 9 9 8 9 9 9 9 9 10 10 10 10 10 10 10 9 9 9 9 9 10 10 11 12
4 5 6 5 3 2 1 1 2 3 3 3 4 4 3 4 4 6 5 4 4 3 5 6 7 8 9 9 9 9 9 9 10 10 10 10 10 10 9 9 8 8 8 9 9 9 10 10 11
5 5 5 3 1 2 1 1 3 4 3 3 4 4 2 2 5 4 4 4 4 4 5 6 7 8 8 8 8 8 9 9 10 10 10 10 9 9 8 8 7 7 8 8 9 9 9 9 10
5 5 4 4 2 1 1 2 3 4 4 2 3 4 1 1 2 4 5 4 5 5 5 6 7 7 7 7 8 8 9 10 10 10 10 10 9 9 8 7 7 7 8 8 8 8 9 9 10
5 5 4 2 3 1 1 2 2 4 3 2 4 5 3 3 3 6 6 5 5 5 5 6 7 7 7 6 7 8 9 10 10 10 11 10 10 10 9 8 8 8 8 8 9 9 9 9 10
4 5 3 4 5 3 2 3 2 3 5 3 2 2 3 7 7 7 6 5 4 4 4 5 5 6 6 6 7 8 8 9 10 10 11 10 10 9 9 9 10 10 10 10 10 10 10 10 10
5 4 3 2 4 4 3 3 3 4 4 3 3 4 6 8 8 7 5 4 3 2 2 3 4 4 5 5 7 8 8 9 9 9 10 9 9 9 9 9 10 10 10 10 11 11 10 9 7
4 4 2 1 3 5 4 3 2 6 2 3 4 5 8 7 6 6 5 4 3 2 2 2 3 4 4 5 6 7 7 8 8 9 9 9 9 9 9 8 8 9 10 9 9 9 8 7 6
4 2 2 2 3 4 4 4 3 3 4 4 6 9 9 8 7 6 5 4 3 3 2 2 3 3 4 4 5 5 5 6 6 7 8 7 6 6 6 6 6 7 7 6 6 6 7 7 7
3 2 2 3 5 5 5 3 3 0 1 4 7 7 7 7 6 4 4 4 4 3 2 2 3 3 3 4 4 4 4 4 5 6 7 7 5 4 5 5 5 6 6 5 5 5 5 5 5
3 4 3 3 3 2 5 2 2 2 3 6 6 5 5 6 5 4 3 4 4 4 3 2 3 3 4 3 3 3 4 4 5 5 6 6 5 4 4 4 5 5 5 5 5 4 4 4 4
4 5 4 3 1 1 4 2 2 3 5 5 5 4 3 4 4 5 6 5 5 5 4 3 4 3 3 3 3 3 4 5 5 5 5 6 6 5 4 3 3 4 5 5 5 5 5 4 4
4 4 1 2 1 1 4 4 4 4 6 5 4 4 4 4 5 5 5 5 5 5 4 4 4 4 3 3 3 3 4 4 4 4 5 5 6 5 5 3 3 4 5 4 3 3 4 4 3
4 1 1 3 1 2 3 4 4 4 6 6 6 5 5 4 4 4 4 5 5 6 5 4 4 4 3 3 3 3 4 4 4 4 4 5 5 5 5 3 4 5 4 3 3 3 2 2 3
3 2 2 3 2 2 2 5 4 4 6 7 6 6 5 6 7 5 4 4 4 4 5 5 4 4 3 3 3 3 3 3 4 4 4 4 4 5 5 4 4 4 3 3 3 3 3 2 2
4 3 3 4 3 3 5 6 7 4 5 6 6 6 7 8 6 4 4 4 4 4 4 5 5 4 4 3 2 2 1 1 1 3 4 4 4 4 4 3 3 3 3 2 3 2 3 3 2
3 2 2 3 1 4 4 6 6 4 6 8 8 8 9 7 4 4 4 5 5 6 5 5 5 5 4 3 3 2 2 1 1 2 3 4 4 3 3 3 2 2 2 3 3 3 2 2 3
2 4 4 3 2 1 0 5 5 4 4 5 6 7 7 9 8 7 6 6 6 6 6 6 5 5 5 4 3 3 3 2 2 2 1 2 3 3 3 3 3 2 2 1 1 2 3 1 2
4 5 4 3 1 2 1 4 6 4 4 5 7 7 8 8 7 7 7 7 7 7 6 6 6 5 5 5 5 5 4 3 3 2 1 1 2 2 3 2 2 2 1 1 1 2 1 2 1
4 1 2 2 2 1 1 2 7 3 5 7 8 8 9 8 7 8 9 8 7 6 6 5 5 5 5 5 6 5 4 3 2 1 1 0 1 1 2 2 2 2 1 1 1 2 2 1 1
3 5 4 4 3 2 4 4 6 4 6 7 7 8 8 7 6 6 6 6 5 5 5 5 5 5 5 5 5 6 5 4 3 2 2 1 0 0 1 1 1 1 1 0 0 1 1 1 1
4 5 3 4 2 4 2 3 7 6 6 7 7 7 6 6 7 6 6 7 6 6 6 6 6 5 5 5 5 5 6 6 6 4 4 3 1 1 1 0 0 1 0 0 1 1 1 0 1
2 6 5 3 4 4 2 5 7 5 5 5 5 4 3 5 6 7 8 9 8 8 7 7 7 6 6 6 5 4 4 5 4 4 4 4 3 3 2 1 1 0 1 0 1 1 0 0 0
3 2 4 5 1 2 5 6 8 3 5 4 3 2 3 4 6 7 6 7 8 8 8 8 8 6 6 6 5 5 5 4 4 4 4 3 3 2 2 2 2 1 0 0 1 0 1 1 1
4 6 4 4 2 3 5 5 4 6 6 6 5 5 5 4 4 5 5 6 7 8 7 7 7 7 6 6 6 5 5 5 4 4 4 4 3 3 3 3 2 2 1 0 1 1 1 1 1
3 3 4 3 3 4 3 6 4 6 6 6 7 6 6 5 5 5 5 5 5 5 5 6 6 5 5 6 5 5 5 4 4 4 4 4 3 4 4 3 3 2 2 1 1 1 1 1 1
3 5 5 4 3 4 3 7 5 5 6 6 6 5 5 4 3 3 4 3 4 5 5 6 6 6 6 6 5 5 5 4 4 4 4 4 3 3 3 4 3 3 2 2 2 2 1 1 2
Wind_Direction
359 71 78 57 56 56 57 11 34 56 64 44 60 82 91 79 85 126 278 349 27 22 15 25 59 76 74 69 66 65 64 65 71 72 71 72 74 79 83 83 82 81 80 77 74 72 71 72 71
43 82 56 57 77 75 22 352 53 77 134 131 73 71 74 63 67 104 23 7 48 39 26 31 66 77 77 73 70 69 67 67 69 70 71 70 74 79 82 84 84 82 81 79 75 72 71 72 70
78 59 74 67 84 127 147 344 111 75 87 90 76 59 79 90 105 131 167 103 63 46 38 44 67 74 78 76 73 73 72 70 69 70 71 70 72 78 81 82 84 81 78 78 77 74 73 72 71
76 48 55 68 74 114 162 185 134 105 69 53 90 72 59 41 131 136 116 100 82 51 44 54 68 71 72 78 73 71 69 69 70 70 70 68 71 76 79 79 82 84 81 78 77 76 75 73 72
61 73 64 60 45 18 72 112 112 93 84 59 88 94 48 12 76 106 109 105 97 61 46 56 71 72 67 66 70 69 68 71 71 70 69 67 67 70 73 75 76 83 83 79 76 78 78 75 72
56 67 82 90 41 20 52 81 101 77 76 78 87 97 68 37 93 107 108 99 85 70 50 55 68 69 67 66 64 65 68 71 71 69 66 63 62 65 67 70 76 81 81 79 78 79 81 76 74
95 87 110 127 107 49 103 83 97 99 88 106 118 103 96 58 104 106 98 88 70 59 54 45 53 58 60 64 66 63 65 69 68 65 63 61 58 59 61 64 72 80 83 81 79 77 79 79 77
113 98 94 121 140 190 124 84 83 93 103 100 110 130 178 199 128 98 86 78 70 56 50 44 46 48 48 50 58 63 66 64 62 60 59 57 52 49 54 61 68 75 80 79 77 74 73 74 75
84 79 130 180 168 180 132 94 59 70 94 73 78 140 166 131 115 99 84 69 65 60 45 43 45 45 48 51 55 59 63 60 59 56 54 51 45 43 46 55 64 69 72 74 74 73 71 71 68
76 112 185 194 166 150 124 112 127 85 73 53 43 50 100 118 124 123 122 122 107 88 57 48 49 47 49 53 53 51 54 54 54 53 51 48 45 44 49 52 57 60 62 67 69 68 65 63 60
92 139 152 97 138 129 121 104 98 123 138 201 180 152 133 133 136 143 153 153 152 140 95 75 61 55 56 52 54 52 54 51 50 52 51 50 46 43 44 44 46 50 54 54 55 56 55 60 63
96 67 125 126 111 116 129 125 101 138 214 198 168 152 145 150 161 167 169 169 147 131 121 98 74 69 64 61 59 57 53 47 44 47 51 53 44 39 40 43 41 48 52 55 53 59 56 58 61
90 99 70 89 86 97 101 108 134 202 93 111 115 126 152 164 175 180 174 161 148 148 150 126 96 86 75 72 64 64 56 50 48 51 49 54 53 45 40 44 47 47 51 61 64 64 62 60 53
113 98 72 59 86 102 110 88 106 227 129 115 123 145 171 179 177 167 168 170 171 173 171 152 121 97 90 82 72 68 60 58 56 50 47 54 58 55 50 46 44 43 43 54 70 70 66 58 55
96 79 38 16 69 133 111 41 234 203 142 137 154 173 185 192 182 185 191 187 182 179 169 158 143 106 97 93 82 72 63 64 56 49 50 52 56 59 62 61 50 39 47 59 69 65 62 56 50
59 70 51 306 101 135 127 242 254 178 154 173 191 197 201 209 204 205 201 190 179 170 167 165 150 127 114 102 85 71 65 65 56 52 53 52 56 64 66 65 53 45 57 64 65 58 57 49 45
41 97 218 290 242 131 150 235 260 184 175 196 207 207 208 219 226 215 207 196 181 171 165 158 149 141 134 114 94 79 68 61 55 57 52 50 57 63 67 61 52 58 62 57 57 53 62 55 40
200 202 232 240 242 137 195 246 265 211 200 214 216 214 209 217 227 212 199 190 175 163 160 157 148 142 130 112 93 78 65 51 48 54 47 48 56 64 69 62 54 61 65 55 53 56 48 54 41
163 176 234 257 229 171 222 252 265 225 219 232 233 225 221 226 225 204 193 180 162 159 160 162 155 153 138 128 125 118 112 66 46 38 42 50 58 67 71 62 61 59 70 64 64 71 57 40 28
142 174 257 287 224 188 233 264 269 227 221 226 226 226 224 229 217 206 197 185 179 179 177 171 172 166 161 160 156 145 141 140 123 38 36 45 57 61 65 67 72 67 69 56 52 62 69 42 33
208 202 222 243 356 35 323 302 280 263 237 242 239 231 224 218 215 211 202 195 187 185 183 182 182 175 170 153 126 103 81 59 50 42 25 13 47 55 53 62 69 75 89 89 48 74 85 69 13
240 225 207 199 116 275 190 281 285 272 277 253 246 241 234 228 217 211 202 197 195 195 185 178 178 175 169 155 151 148 155 173 201 197 194 14 49 62 64 71 72 77 79 90 54 52 65 102 37
213 109 139 156 153 312 303 227 286 304 276 263 247 239 235 227 213 208 203 199 195 186 180 180 172 169 165 166 167 163 168 182 166 143 146 138 36 45 56 79 77 64 60 79 69 60 56 75 107
118 64 54 53 74 291 252 205 281 252 244 264 251 239 238 228 216 209 203 190 187 176 172 171 173 178 170 170 172 174 178 171 152 161 177 197 232 330 14 64 79 72 63 69 63 92 87 73 78
73 79 28 360 4 260 260 218 255 255 246 242 248 244 245 226 211 204 194 189 188 184 181 178 178 187 181 176 184 190 188 179 181 186 189 186 191 216 235 89 79 71 114 155 111 100 81 109 98
160 139 159 210 234 282 294 242 259 272 284 265 254 251 256 232 210 208 204 195 191 189 185 181 185 192 187 185 195 195 189 184 195 194 189 193 202 208 195 169 165 164 156 124 110 113 235 141 173
125 149 161 142 170 279 282 288 302 316 342 344 332 324 284 258 218 212 207 200 193 189 190 188 189 193 195 195 193 190 192 191 194 195 188 193 200 194 173 176 168 169 177 161 117 175 263 225 227
123 140 99 125 172 264 291 284 278 307 311 319 315 298 288 279 234 211 205 203 196 192 190 186 188 195 199 197 195 195 200 200 192 184 191 194 192 181 174 180 180 178 175 110 167 224 252 230 260
89 100 111 125 156 172 268 276 241 253 280 291 287 285 281 268 246 218 208 205 194 185 177 182 191 193 194 196 198 196 198 194 182 188 200 195 184 179 183 189 187 191 199 200 199 242 234 222 272
173 166 148 161 222 190 208 267 276 270 283 279 282 291 296 275 253 224 203 196 187 185 185 189 195 198 200 194 193 200 196 183 183 196 202 190 184 187 191 185 186 198 201 198 204 234 240 224 248
Height
1495 1495 1495 1496 1501 1514 1520 1518 1514 1514 1514 1515 1514 1514 1516 1519 1522 1527 1524 1521 1521 1521 1520 1520 1520 1520 1520 1520 1520 1519 1519 1519 1519 1518 1518 1518 1518 1518 1519 1519 1519 1519 1519 1520 1520 1520 1520 1520 1520
1496 1496 1497 1498 1511 1526 1524 1517 1516 1514 1514 1515 1515 1516 1518 1520 1521 1522 1522 1522 1522 1522 1521 1521 1521 1521 1521 1521 1521 1521 1520 1520 1520 1520 1519 1519 1519 1519 1519 1520 1520 1520 1520 1520 1521 1521 1521 1521 1521
1496 1497 1499 1503 1517 1525 1522 1516 1515 1514 1515 1515 1517 1518 1520 1522 1522 1523 1523 1523 1523 1523 1523 1522 1522 1522 1522 1522 1522 1522 1522 1522 1521 1521 1521 1520 1520 1520 1520 1520 1520 1521 1521 1521 1522 1522 1522 1522 1522
1497 1499 1501 1511 1519 1519 1517 1516 1515 1515 1516 1516 1517 1520 1522 1524 1524 1524 1524 1524 1524 1524 1524 1523 1523 1523 1523 1523 1523 1523 1523 1523 1522 1522 1522 1522 1521 1521 1521 1521 1521 1522 1522 1522 1522 1522 1522 1523 1522
1498 1500 1510 1520 1520 1517 1516 1515 1516 1516 1517 1518 1519 1521 1523 1525 1525 1525 1525 1526 1526 1526 1525 1525 1525 1525 1524 1524 1525 1525 1524 1524 1523 1523 1523 1523 1523 1522 1522 1522 1522 1522 1523 1523 1523 1523 1523 1523 1523
1499 1502 1519 1526 1521 1518 1516 1516 1516 1517 1518 1519 1520 1522 1525 1526 1526 1526 1527 1527 1527 1527 1527 1527 1526 1526 1526 1526 1526 1526 1526 1525 1525 1524 1524 1524 1523 1523 1523 1522 1522 1523 1523 1523 1523 1524 1524 1524 1524
1501 1509 1520 1522 1522 1519 1517 1517 1517 1518 1519 1521 1521 1523 1525 1526 1527 1527 1528 1528 1528 1528 1528 1528 1528 1528 1528 1528 1527 1527 1527 1526 1526 1526 1525 1525 1524 1524 1523 1522 1522 1523 1523 1523 1524 1524 1524 1524 1524
1501 1509 1519 1522 1522 1521 1518 1518 1519 1519 1521 1522 1522 1523 1525 1526 1527 1528 1528 1529 1529 1529 1529 1529 1529 1529 1529 1529 1529 1528 1528 1527 1527 1527 1526 1526 1525 1524 1523 1523 1522 1523 1523 1524 1524 1524 1524 1524 1524
1502 1514 1522 1520 1520 1519 1517 1518 1520 1521 1521 1523 1523 1524 1525 1526 1527 1528 1528 1529 1530 1530 1530 1530 1530 1530 1530 1530 1530 1530 1529 1529 1528 1528 1527 1527 1526 1525 1524 1523 1523 1524 1524 1525 1525 1525 1525 1525 1525
1504 1517 1517 1514 1514 1516 1517 1518 1520 1522 1522 1523 1524 1524 1525 1526 1527 1528 1528 1529 1530 1530 1531 1531 1531 1532 1532 1532 1531 1531 1530 1530 1530 1529 1529 1528 1527 1525 1525 1524 1524 1525 1525 1526 1526 1526 1525 1525 1525
1506 1513 1513 1513 1513 1515 1517 1519 1520 1521 1524 1523 1523 1524 1525 1526 1527 1528 1529 1530 1531 1531 1532 1532 1532 1533 1533 1533 1533 1532 1532 1531 1531 1530 1530 1529 1528 1527 1526 1526 1526 1526 1526 1527 1527 1526 1526 1526 1526
1509 1512 1512 1514 1514 1515 1517 1519 1521 1521 1522 1522 1523 1523 1524 1526 1527 1528 1529 1530 1531 1532 1532 1533 1533 1533 1533 1533 1533 1533 1533 1533 1532 1531 1531 1530 1529 1528 1528 1527 1527 1527 1528 1528 1527 1527 1527 1527 1526
1510 1513 1514 1514 1515 1516 1518 1519 1520 1522 1522 1522 1523 1524 1525 1526 1527 1529 1530 1531 1531 1532 1533 1533 1534 1534 1534 1534 1534 1534 1534 1534 1533 1532 1532 1531 1530 1530 1529 1529 1529 1529 1528 1528 1528 1528 1527 1527 1527
1511 1513 1515 1515 1516 1517 1519 1520 1521 1521 1522 1522 1523 1524 1525 1526 1527 1528 1529 1530 1531 1532 1533 1534 1534 1534 1535 1535 1535 1535 1535 1535 1534 1534 1533 1532 1532 1531 1530 1530 1530 1529 1529 1529 1529 1528 1528 1528 1527
1512 1515 1517 1517 1517 1518 1519 1523 1522 1521 1522 1522 1523 1524 1525 1526 1527 1527 1528 1530 1531 1532 1532 1533 1534 1535 1535 1535 1536 1536 1536 1535 1535 1535 1534 1533 1533 1532 1531 1531 1531 1530 1530 1530 1529 1529 1529 1528 1528
1514 1520 1525 1520 1518 1519 1523 1528 1521 1521 1521 1522 1523 1523 1524 1525 1526 1527 1528 1529 1530 1531 1532 1533 1534 1535 1535 1536 1536 1536 1536 1536 1536 1535 1534 1534 1534 1533 1533 1532 1531 1531 1531 1530 1530 1529 1529 1528 1528
1522 1528 1527 1524 1519 1520 1523 1525 1520 1520 1521 1521 1521 1522 1523 1524 1525 1526 1527 1528 1529 1530 1531 1533 1534 1534 1535 1536 1536 1537 1537 1536 1536 1536 1535 1535 1534 1534 1533 1533 1532 1532 1531 1531 1530 1530 1529 1529 1528
1528 1528 1527 1526 1520 1521 1524 1523 1520 1520 1520 1520 1520 1520 1521 1522 1523 1524 1526 1527 1528 1529 1531 1532 1533 1534 1535 1535 1536 1536 1536 1536 1536 1536 1535 1535 1535 1534 1534 1533 1533 1532 1532 1531 1531 1530 1530 1529 1528
1520 1524 1527 1523 1519 1522 1524 1522 1519 1518 1519 1518 1518 1518 1519 1520 1522 1523 1524 1525 1526 1528 1529 1530 1532 1533 1533 1534 1534 1535 1535 1536 1536 1536 1536 1535 1535 1534 1534 1534 1533 1532 1532 1531 1531 1530 1530 1529 1528
1520 1525 1526 1522 1519 1521 1523 1522 1517 1516 1516 1515 1515 1515 1516 1517 1519 1520 1522 1523 1524 1525 1527 1529 1530 1531 1532 1533 1534 1534 1535 1535 1535 1536 1535 1535 1535 1535 1534 1534 1533 1533 1532 1531 1531 1530 1529 1529 1528
1520 1523 1523 1523 1521 1521 1523 1524 1518 1514 1513 1513 1513 1513 1513 1514 1516 1517 1519 1520 1522 1523 1525 1527 1529 1530 1531 1532 1533 1534 1534 1534 1535 1535 1535 1535 1535 1534 1534 1533 1533 1533 1532 1531 1531 1530 1530 1529 1529
1522 1516 1518 1520 1527 1530 1527 1535 1520 1514 1513 1511 1510 1510 1510 1511 1512 1514 1515 1517 1519 1521 1523 1525 1527 1528 1529 1530 1531 1532 1532 1532 1533 1534 1534 1534 1534 1534 1533 1533 1533 1532 1532 1531 1531 1530 1530 1529 1528
1516 1514 1517 1520 1526 1531 1529 1534 1525 1515 1513 1509 1506 1506 1506 1507 1509 1510 1512 1514 1516 1519 1521 1523 1525 1526 1527 1528 1529 1530 1531 1531 1532 1533 1533 1533 1533 1533 1533 1532 1532 1532 1531 1531 1530 1530 1529 1529 1528
1513 1517 1521 1526 1531 1537 1531 1534 1528 1518 1510 1505 1502 1502 1503 1504 1506 1507 1509 1511 1514 1516 1518 1520 1522 1524 1525 1526 1527 1528 1529 1530 1530 1531 1531 1531 1531 1531 1531 1531 1531 1530 1530 1530 1529 1529 1528 1528 1527
1516 1527 1538 1538 1543 1540 1530 1531 1524 1508 1504 1502 1500 1499 1500 1501 1502 1504 1506 1508 1511 1513 1515 1517 1519 1521 1522 1523 1524 1525 1526 1527 1528 1529 1529 1529 1529 1529 1529 1529 1529 1529 1529 1528 1528 1528 1527 1527 1526
1518 1524 1539 1543 1544 1539 1530 1530 1515 1503 1501 1499 1498 1498 1498 1498 1499 1501 1503 1505 1507 1510 1512 1514 1516 1518 1519 1520 1522 1523 1524 1524 1525 1526 1527 1527 1528 1528 1528 1528 1528 1527 1527 1527 1526 1526 1526 1525 1525
1519 1524 1525 1536 1538 1541 1534 1525 1511 1501 1499 1498 1497 1496 1496 1496 1497 1498 1500 1502 1504 1506 1509 1511 1513 1514 1516 1517 1519 1520 1521 1521 1522 1524 1525 1525 1526 1526 1526 1526 1526 1526 1526 1525 1525 1524 1524 1523 1523
1514 1521 1530 1536 1541 1543 1535 1528 1519 1506 1501 1499 1497 1496 1495 1495 1495 1496 1498 1500 1502 1504 1506 1508 1510 1511 1513 1514 1515 1517 1518 1519 1520 1521 1522 1522 1523 1524 1524 1524 1524 1523 1523 1523 1523 1522 1522 1521 1521
1519 1522 1527 1535 1536 1542 1541 1530 1508 1504 1500 1499 1497 1495 1495 1494 1493 1494 1495 1497 1499 1501 1503 1505 1506 1508 1509 1511 1512 1514 1515 1516 1517 1518 1519 1520 1520 1521 1521 1521 1521 1521 1521 1521 1520 1520 1519 1519 1518
1514 1518 1525 1532 1535 1538 1539 1529 1501 1500 1498 1497 1495 1494 1494 1493 1493 1493 1494 1495 1497 1498 1500 1502 1503 1505 1506 1508 1509 1510 1511 1512 1513 1515 1516 1517 1517 1518 1518 1518 1518 1518 1518 1518 1518 1518 1517 1516 1516